Location: Unspecified
(0.0000°N, 0.0000°E)
Time: 02:12:12
(UTC+02:00)

OPAL - Visible Passes

Search period start: 27 June 2017 00:00
Search period end: 07 July 2017 00:00
Orbit: 744 x 795 km, 100.2° (Epoch: 26 June)

Date Brightness Start Highest point End Pass type
(mag) Time Alt. Az. Time Alt. Az. Time Alt. Az.
27 Jun 9.7 07:03:54 10° NE 07:08:04 25° ESE 07:12:12 10° SSE visible
28 Jun 9.9 20:38:55 10° SSW 20:42:47 22° WSW 20:46:40 10° NW visible
29 Jun 8.4 07:30:58 10° NNE 07:35:56 53° ESE 07:40:52 10° S visible
30 Jun 10.1 06:57:01 10° ENE 07:00:34 19° ESE 07:04:06 10° SSE visible
30 Jun 10.7 21:10:20 10° WSW 21:10:37 10° WSW 21:10:54 10° WSW visible
01 Jul 9.5 20:30:55 10° SSW 20:35:16 29° WSW 20:39:40 10° NW visible
02 Jul 8.9 07:23:41 10° NE 07:28:26 40° ESE 07:33:08 10° S visible
03 Jul 10.2 06:50:25 10° ENE 06:53:04 14° ESE 06:55:41 10° SE visible
03 Jul 10.3 21:00:32 10° SW 21:03:07 14° WSW 21:05:43 10° WNW visible
05 Jul 9.4 07:16:32 10° NE 07:20:55 30° ESE 07:25:16 10° SSE visible
06 Jul 10.6 06:44:58 10° E 06:45:34 10° ESE 06:46:09 10° ESE visible
06 Jul 10.1 20:52:07 10° SSW 20:55:38 19° WSW 20:59:10 10° WNW visible
